TimeCST,TemperatureF,Dew PointF,Humidity,Sea Level PressureIn,VisibilityMPH,Wind Direction,Wind SpeedMPH,Gust SpeedMPH,PrecipitationIn,Events,Conditions,WindDirDegrees,DateUTC
12:53 AM,17.1,16.0,96,30.31,9.0,SE,12.7,-,N/A,,Overcast,140,2013-03-07 06:53:00
1:53 AM,17.1,16.0,96,30.30,8.0,SE,12.7,-,N/A,,Overcast,140,2013-03-07 07:53:00
2:03 AM,17.6,15.8,93,30.20,7.0,SE,10.4,-,N/A,,Overcast,140,2013-03-07 08:03:00
2:53 AM,17.1,16.0,96,30.27,7.0,SE,12.7,18.4,N/A,,Overcast,140,2013-03-07 08:53:00
3:53 AM,18.0,17.1,96,30.26,8.0,SE,11.5,-,N/A,,Overcast,130,2013-03-07 09:53:00
4:53 AM,18.0,16.0,92,30.24,10.0,SE,12.7,21.9,N/A,,Overcast,130,2013-03-07 10:53:00
5:53 AM,18.0,16.0,92,30.24,9.0,SE,12.7,-,N/A,,Overcast,140,2013-03-07 11:53:00
6:53 AM,18.0,16.0,92,30.23,8.0,SE,13.8,21.9,N/A,,Overcast,130,2013-03-07 12:53:00
7:25 AM,19.4,17.6,93,30.13,7.0,SE,13.8,23.0,N/A,,Overcast,140,2013-03-07 13:25:00
7:53 AM,19.0,17.1,92,30.21,7.0,SSE,16.1,23.0,N/A,,Overcast,150,2013-03-07 13:53:00
8:53 AM,19.9,17.1,89,30.21,8.0,SSE,19.6,28.8,N/A,,Overcast,150,2013-03-07 14:53:00
9:53 AM,21.0,17.1,85,30.24,10.0,SSE,16.1,23.0,N/A,,Mostly Cloudy,150,2013-03-07 15:53:00
10:10 AM,21.2,17.6,86,30.14,10.0,SE,16.1,24.2,N/A,,Scattered Clouds,140,2013-03-07 16:10:00
10:53 AM,23.0,18.0,81,30.22,10.0,SE,19.6,25.3,N/A,,Clear,140,2013-03-07 16:53:00
11:53 AM,25.0,19.9,81,30.19,10.0,SE,18.4,28.8,N/A,,Clear,140,2013-03-07 17:53:00
12:53 PM,28.9,21.9,75,30.18,10.0,SE,15.0,25.3,N/A,,Clear,140,2013-03-07 18:53:00
1:53 PM,30.0,21.9,72,30.16,10.0,SSE,17.3,25.3,N/A,,Clear,150,2013-03-07 19:53:00
2:53 PM,30.9,25.0,79,30.15,10.0,SSE,15.0,21.9,N/A,,Clear,150,2013-03-07 20:53:00
3:53 PM,30.0,25.0,82,30.14,10.0,SE,12.7,-,N/A,,Clear,130,2013-03-07 21:53:00
4:53 PM,30.9,26.1,82,30.16,9.0,SSE,15.0,-,N/A,,Clear,160,2013-03-07 22:53:00
5:53 PM,30.9,26.1,82,30.17,9.0,SE,6.9,-,N/A,,Clear,140,2013-03-07 23:53:00
6:53 PM,30.0,26.1,85,30.18,9.0,SE,8.1,-,N/A,,Clear,140,2013-03-08 00:53:00
7:53 PM,28.9,25.0,85,30.18,9.0,SSE,9.2,-,N/A,,Clear,150,2013-03-08 01:53:00
8:53 PM,28.0,25.0,88,30.18,7.0,SSE,10.4,-,N/A,,Clear,150,2013-03-08 02:53:00
9:53 PM,28.0,25.0,88,30.19,6.0,SSE,16.1,-,N/A,,Clear,160,2013-03-08 03:53:00
11:53 PM,26.1,24.1,92,30.21,5.0,South,13.8,-,N/A,,Clear,170,2013-03-08 05:53:00